Powrót do katalogu

STARLINK-35304

AktywnyŁącznośćVLEO
NORAD 66249·PAYLOAD·🇺🇸 United States

Wystrzelony Oct 29, 2025 z Cape Canaveral Space Force Station

Loading…

Następne Przeloty (najbliższe 24 godziny)

TLE

ŚwieżeSource: CelesTrak SupGP

Epoka: Sep 14, 2026, 21:13 UTC

1 66249C 25245R   26257.88451389 -.00028742  00000+0 -92504-3 0  2577
2 66249  53.1561 124.0820 0001137  88.1147  50.6987 15.31689902    18

Śledź STARLINK-35304 w czasie rzeczywistym z AllMySat

Download on the App Store